[[{"header":{"parameterUnit":"m.s-1","parameterCategory":2,"la1":30.2991,"la2":30.254,"lo1":-89.0895,"lo2":-89.0444,"dy":0.0017,"dx":0.0017,"nx":28,"ny":28,"refTime":"2025-02-11T03:00:00:Z","depth":"0","parameterNumber":2,"parameterNumberName":"U-component_of_CURRENTS"},"data":[0,0,0,0,0,0,0,0,0,0,0,0,0,0,0,0,0,0,0,0,0,0,0,0,0,0,0,0,0,0,0,0,0,0,0,0,0,0,0,0,0,0,0,0,0,0,0,0,0,0,0,0,0,0,0,0,0,0,-0.2694,-0.2694,0,-0.2725,-0.2726,-0.2726,-0.2707,-0.2706,-0.2705,-0.2705,-0.2712,-0.2713,-0.2714,0,0,0,0,0,0,0,0,0,0,0,0,0,-0.2616,-0.2617,-0.2693,-0.2694,-0.2695,-0.2725,-0.2726,-0.2726,-0.2707,-0.2706,-0.2705,-0.2704,-0.2712,-0.2713,-0.2714,0,0,0,0,0,0,0,0,0,0,0,0,0,-0.2647,-0.2618,-0.2693,-0.269,-0.2691,-0.2725,-0.2726,-0.2726,-0.2707,-0.2706,-0.2705,-0.2704,-0.2711,-0.2713,-0.2714,-0.2744,0,0,-0.2718,-0.2718,0,0,0,0,0,0,0,0,-0.2645,-0.265,-0.269,-0.2691,-0.2691,-0.2713,-0.2701,-0.2731,-0.2707,-0.2699,-0.2705,-0.2703,-0.2712,-0.2713,-0.2719,-0.2744,-0.2744,-0.2718,-0.2719,-0.2719,-0.272,0,0,0,0,0,0,0,-0.2643,-0.2648,-0.2704,-0.2691,-0.2692,-0.2688,-0.2691,-0.2707,-0.2709,-0.2699,-0.2699,-0.2706,-0.2712,-0.2718,-0.2719,-0.2744,-0.2718,-0.2719,-0.272,-0.272,-0.278,-0.2781,0,0,0,0,0,0,-0.2645,-0.2647,-0.2703,-0.2705,-0.2667,-0.269,-0.2693,-0.2705,-0.2709,-0.271,-0.2707,-0.2705,-0.2716,-0.2718,-0.2719,-0.2742,-0.2719,-0.272,-0.2721,-0.2779,-0.278,-0.2781,0,0,0,0,0,0,-0.2643,-0.265,-0.2702,-0.2678,-0.2684,-0.2693,-0.2706,-0.2707,-0.2708,-0.2716,-0.2715,-0.2708,-0.2715,-0.2717,-0.2728,-0.2742,-0.2721,-0.2722,-0.2778,-0.2779,-0.278,-0.2796,0,0,0,0,0,0,-0.2641,-0.2649,-0.2654,-0.2678,-0.2686,-0.2724,-0.2708,-0.2708,-0.2716,-0.2713,-0.2717,-0.2716,-0.2715,-0.2726,-0.2729,-0.2744,-0.2723,-0.2777,-0.2779,-0.278,-0.2794,-0.2798,-0.28,0,0,0,0,0,-0.2638,-0.2652,-0.2654,-0.266,-0.2693,-0.2725,-0.2729,-0.2729,-0.2717,-0.2725,-0.272,-0.2716,-0.2738,-0.2728,-0.2731,-0.2747,-0.2776,-0.2778,-0.278,-0.2793,-0.2797,-0.28,0,0,0,0,0,0,-0.262,-0.2653,-0.2654,-0.2677,-0.27,-0.2723,-0.2728,-0.2732,-0.2736,-0.2728,-0.2726,-0.2726,-0.2741,-0.2745,-0.2733,-0.2769,-0.2757,-0.276,-0.2766,-0.277,-0.2773,-0.2772,-0.2724,0,0,0,0,0,-0.262,-0.2634,-0.2668,-0.2683,-0.2696,-0.2712,-0.2722,-0.2728,-0.2738,-0.2738,-0.2741,-0.2745,-0.2754,-0.276,-0.2769,-0.2792,-0.2773,-0.2805,-0.2808,-0.281,-0.2813,-0.2797,-0.2798,-0.2787,-0.2787,-0.2787,0,0,-0.2614,-0.2634,-0.2641,-0.2679,-0.2692,-0.2722,-0.2714,-0.2735,-0.2755,-0.274,-0.2757,-0.2755,-0.2762,-0.2781,-0.2789,-0.2784,-0.2801,-0.2813,-0.2814,-0.2816,-0.2798,-0.2799,-0.28,-0.2788,-0.2788,-0.2788,0,0,-0.2617,-0.2631,-0.2649,-0.2675,-0.2706,-0.2723,-0.2731,-0.2759,-0.2763,-0.2786,-0.2776,-0.2779,-0.2801,-0.2805,-0.281,-0.2838,-0.2815,-0.2845,-0.2862,-0.2846,-0.2846,-0.2847,-0.2809,-0.2806,-0.2849,-0.2849,-0.2849,0,-0.2608,-0.2637,-0.2658,-0.2689,-0.2708,-0.2726,-0.2754,-0.2772,-0.2797,-0.2803,-0.2793,-0.2812,-0.2813,-0.2833,-0.284,-0.2844,-0.2822,-0.2846,-0.2848,-0.2848,-0.2848,-0.281,-0.2806,-0.285,-0.285,-0.285,-0.285,0,-0.263,-0.2656,-0.267,-0.2713,-0.274,-0.2765,-0.2801,-0.282,-0.2824,-0.2837,-0.2852,-0.285,-0.2858,-0.2863,-0.286,-0.2869,-0.2848,-0.2849,-0.2835,-0.285,-0.2809,-0.2804,-0.2851,-0.2851,-0.2851,-0.285,0,0,-0.2598,-0.267,-0.2673,-0.2696,-0.2753,-0.2775,-0.2816,-0.2852,-0.2868,-0.2884,-0.2896,-0.2909,-0.2897,-0.2902,-0.2897,-0.2887,-0.2861,-0.287,-0.2868,-0.2825,-0.2806,-0.2748,-0.2737,-0.2859,-0.2859,-0.2859,-0.2772,0,-0.2603,-0.2657,-0.2696,-0.2741,-0.277,-0.2809,-0.2846,-0.2881,-0.2898,-0.2916,-0.2917,-0.2925,-0.2917,-0.2912,-0.2904,-0.288,-0.2853,-0.2883,-0.2806,-0.2803,-0.2744,-0.2732,-0.2642,-0.2554,-0.2768,-0.2767,-0.2766,0,-0.2606,-0.2643,-0.2687,-0.2753,-0.2769,-0.28,-0.2846,-0.2884,-0.2923,-0.2935,-0.2946,-0.2945,-0.2945,-0.2926,-0.2885,-0.2904,-0.2852,-0.2824,-0.282,-0.2759,-0.2738,-0.2578,-0.2538,-0.2517,-0.2759,-0.276,-0.276,0,-0.2556,-0.2633,-0.2661,-0.2686,-0.2766,-0.2787,-0.2824,-0.2876,-0.2903,-0.2937,-0.2947,-0.2954,-0.2942,-0.2907,-0.2858,-0.2867,-0.2794,-0.2798,-0.269,-0.2684,-0.259,-0.2576,-0.2514,-0.2743,-0.2743,-0.2743,-0.2744,0,-0.2538,-0.256,-0.2638,-0.2653,-0.2685,-0.2754,-0.2785,-0.2828,-0.2882,-0.29,-0.2941,-0.2946,-0.2935,-0.2901,-0.2855,-0.2757,-0.2787,-0.2682,-0.2659,-0.2591,-0.258,-0.2544,-0.2567,-0.274,-0.2741,-0.2742,-0.2742,0,-0.247,-0.2526,-0.2561,-0.2639,-0.266,-0.2678,-0.2756,-0.2776,-0.2843,-0.2866,-0.2876,-0.2924,-0.2884,-0.2854,-0.2786,-0.2735,-0.261,-0.261,-0.2522,-0.249,-0.2376,-0.2404,-0.2317,-0.2247,-0.2477,-0.2475,-0.2474,0,-0.2436,-0.2447,-0.2523,-0.2535,-0.2564,-0.2608,-0.2634,-0.273,-0.2757,-0.2843,-0.2842,-0.284,-0.2812,-0.2711,-0.2621,-0.2513,-0.251,-0.2369,-0.2373,-0.2347,-0.2361,-0.2384,-0.2333,-0.2244,-0.224,-0.2238,-0.2235,0,-0.2358,-0.2385,-0.2409,-0.2439,-0.2465,-0.2503,-0.2552,-0.2577,-0.2681,-0.271,-0.2737,-0.273,-0.2659,-0.2533,-0.2414,-0.2338,-0.2322,-0.2307,-0.2303,-0.2189,-0.2187,-0.2114,-0.2321,-0.2211,-0.2213,-0.2215,-0.2216,-0.2217,-0.2277,-0.2275,-0.2305,-0.232,-0.2351,-0.2369,-0.2355,-0.2425,-0.2454,-0.2472,-0.2565,-0.2528,-0.2467,-0.2295,-0.2214,-0.2063,-0.2118,-0.2007,-0.2044,-0.2071,-0.2002,-0.2147,-0.2006,-0.2007,-0.2008,-0.2009,-0.201,0,-0.2165,-0.2172,-0.2182,-0.2195,-0.2174,-0.2236,-0.2267,-0.223,-0.2211,-0.2281,-0.228,-0.2271,-0.2138,-0.2085,-0.1947,-0.1844,-0.1788,-0.1799,-0.1816,-0.1774,-0.1905,-0.1894,-0.1695,-0.1695,-0.1695,-0.1695,-0.1695,-0.1695,-0.2104,-0.2069,-0.2078,-0.2004,-0.2005,-0.1931,-0.1915,-0.1885,-0.1902,-0.1883,-0.1921,-0.1998,-0.1982,-0.2046,-0.1877,-0.1764,-0.171,-0.1656,-0.1671,-0.1789,-0.1812,-0.1834,-0.1828,-0.1618,-0.1618,-0.1474,-0.1473,-0.1472]},{"header":{"parameterUnit":"m.s-1","parameterCategory":2,"la1":30.2991,"la2":30.254,"lo1":-89.0895,"lo2":-89.0444,"dy":0.0017,"dx":0.0017,"nx":28,"ny":28,"refTime":"2025-02-11T03:00:00:Z","depth":"0","parameterNumber":3,"parameterNumberName":"V-component_of_CURRENTS"},"data":[0,0,0,0,0,0,0,0,0,0,0,0,0,0,0,0,0,0,0,0,0,0,0,0,0,0,0,0,0,0,0,0,0,0,0,0,0,0,0,0,0,0,0,0,0,0,0,0,0,0,0,0,0,0,0,0,0,0,-0.0316,-0.0315,0,-0.0238,-0.0237,-0.0236,-0.0177,-0.0176,-0.0176,-0.0175,-0.0062,-0.0059,-0.0056,0,0,0,0,0,0,0,0,0,0,0,0,0,-0.0367,-0.0367,-0.0316,-0.0315,-0.0315,-0.0238,-0.0237,-0.0236,-0.0177,-0.0176,-0.0176,-0.0175,-0.0062,-0.0059,-0.0056,0,0,0,0,0,0,0,0,0,0,0,0,0,-0.0321,-0.0366,-0.0316,-0.0277,-0.0273,-0.0238,-0.0237,-0.0235,-0.0177,-0.0176,-0.0176,-0.0175,-0.0063,-0.006,-0.0056,-0.0044,0,0,-0.0044,-0.0042,0,0,0,0,0,0,0,0,-0.0324,-0.032,-0.0283,-0.0279,-0.0275,-0.0217,-0.0213,-0.017,-0.0177,-0.0212,-0.0175,-0.0175,-0.0112,-0.0104,-0.0089,-0.0039,-0.0034,-0.0043,-0.0041,-0.0039,-0.0038,0,0,0,0,0,0,0,-0.0327,-0.0322,-0.0284,-0.0283,-0.0277,-0.0247,-0.024,-0.0204,-0.0165,-0.0209,-0.0205,-0.0198,-0.0109,-0.0093,-0.0086,-0.0032,-0.0043,-0.004,-0.0037,-0.0036,0.0028,0.0028,0,0,0,0,0,0,-0.0343,-0.0326,-0.0286,-0.0282,-0.03,-0.0247,-0.0239,-0.0235,-0.0166,-0.0155,-0.0199,-0.0196,-0.01,-0.0091,-0.0082,-0.0064,-0.0039,-0.0036,-0.0033,0.0029,0.0028,0.0027,0,0,0,0,0,0,-0.0344,-0.034,-0.029,-0.0303,-0.0294,-0.0247,-0.0243,-0.0234,-0.0218,-0.0159,-0.0147,-0.0192,-0.0099,-0.0087,-0.0057,-0.0059,-0.0034,-0.003,0.003,0.0029,0.0028,-0.0027,0,0,0,0,0,0,-0.0346,-0.0341,-0.0345,-0.0304,-0.0294,-0.0277,-0.0244,-0.0233,-0.0215,-0.0211,-0.0149,-0.0138,-0.0098,-0.0063,-0.0053,-0.0053,-0.0027,0.0031,0.0029,0.0028,-0.0025,-0.003,-0.0035,0,0,0,0,0,-0.0348,-0.036,-0.0346,-0.0341,-0.0301,-0.0278,-0.0271,-0.0233,-0.0216,-0.0215,-0.0174,-0.0139,-0.0063,-0.006,-0.0048,-0.0047,0.0031,0.003,0.0028,-0.0022,-0.0029,-0.0035,0,0,0,0,0,0,-0.0383,-0.0354,-0.0338,-0.0339,-0.0314,-0.0269,-0.0265,-0.024,-0.0207,-0.0201,-0.0144,-0.0131,-0.0106,-0.0074,-0.0072,-0.0034,-0.0012,-0.0011,-0.0054,-0.006,-0.0065,-0.0075,-0.0024,0,0,0,0,0,-0.0394,-0.0395,-0.036,-0.0361,-0.0352,-0.031,-0.0296,-0.0272,-0.0237,-0.0222,-0.0179,-0.0137,-0.0103,-0.008,-0.0048,-0.0024,0.0017,-0.0018,-0.0023,-0.0028,-0.0029,0.0023,0.0023,0.0023,0.0023,0.0023,0,0,-0.0407,-0.0392,-0.0391,-0.0368,-0.0345,-0.0341,-0.03,-0.0286,-0.0278,-0.0215,-0.0193,-0.0154,-0.0104,-0.0079,-0.0065,-0.005,-0.0005,-0.003,-0.0033,-0.0032,0.0022,0.0022,0.0022,0.0022,0.0022,0.0022,0,0,-0.044,-0.0421,-0.0435,-0.042,-0.0395,-0.0368,-0.0368,-0.0328,-0.0304,-0.0281,-0.0236,-0.0198,-0.0149,-0.0108,-0.0082,-0.0095,-0.0038,-0.009,-0.0114,-0.0064,-0.0063,-0.0062,-0.0005,0.0002,-0.0087,-0.0087,-0.0087,0,-0.0458,-0.047,-0.0436,-0.0446,-0.0439,-0.0385,-0.0398,-0.0367,-0.0321,-0.0302,-0.0284,-0.0203,-0.016,-0.0118,-0.0124,-0.0104,-0.0067,-0.0094,-0.0069,-0.0067,-0.0065,-0.0007,0.0001,-0.009,-0.009,-0.009,-0.0089,0,-0.0502,-0.0511,-0.0518,-0.0512,-0.0498,-0.05,-0.0457,-0.0437,-0.0402,-0.0364,-0.0318,-0.0256,-0.0205,-0.0188,-0.0158,-0.0124,-0.0099,-0.0085,-0.0053,-0.0068,-0.0006,0.0004,-0.0094,-0.0093,-0.0092,-0.0092,0,0,-0.0544,-0.055,-0.0552,-0.0564,-0.0535,-0.053,-0.0513,-0.0479,-0.0463,-0.0408,-0.0379,-0.0316,-0.0272,-0.0241,-0.0192,-0.0146,-0.0096,-0.0116,-0.0112,-0.0057,0.0021,0.0074,0.009,-0.0078,-0.0077,-0.0076,0.006,0,-0.0589,-0.0634,-0.0614,-0.0643,-0.0661,-0.0608,-0.0597,-0.0555,-0.0504,-0.0461,-0.038,-0.0337,-0.0294,-0.0269,-0.0216,-0.0128,-0.0074,-0.0134,0.0026,0.0031,0.0081,0.0101,0.0146,0.0274,0.007,0.0072,0.0073,0,-0.0639,-0.0663,-0.0708,-0.0714,-0.0714,-0.0716,-0.068,-0.0661,-0.058,-0.0538,-0.047,-0.0402,-0.032,-0.0288,-0.0134,-0.0175,-0.0086,-0.0014,-0.0007,0.0068,0.0101,0.0256,0.03,0.0458,0.0088,0.0087,0.0086,0,-0.0694,-0.0724,-0.0764,-0.0768,-0.0764,-0.0765,-0.075,-0.0687,-0.0667,-0.0583,-0.055,-0.0442,-0.0381,-0.0263,-0.0106,-0.0123,0.007,0.007,0.0206,0.0211,0.0295,0.0305,0.0514,0.0177,0.0176,0.0176,0.0175,0,-0.0753,-0.0783,-0.0797,-0.0821,-0.0858,-0.0825,-0.0833,-0.0796,-0.0735,-0.0709,-0.0596,-0.054,-0.0375,-0.024,-0.011,0.0091,0.0075,0.0213,0.0253,0.0277,0.0284,0.0461,0.0518,0.0181,0.018,0.0179,0.0178,0,-0.0809,-0.0818,-0.0869,-0.0884,-0.089,-0.0915,-0.0903,-0.09,-0.0829,-0.0788,-0.0764,-0.0607,-0.0425,-0.0237,-0.0026,0.0093,0.0383,0.0344,0.0367,0.0406,0.066,0.071,0.096,0.1052,0.051,0.0512,0.0514,0,-0.0843,-0.0878,-0.0926,-0.096,-0.0972,-0.0997,-0.101,-0.0959,-0.0943,-0.0823,-0.0803,-0.0618,-0.0468,-0.0118,0.0127,0.039,0.0502,0.0574,0.0548,0.0699,0.0784,0.0821,0.0883,0.0644,0.0646,0.0649,0.065,0,-0.0904,-0.0921,-0.0962,-0.104,-0.1075,-0.1107,-0.1113,-0.1117,-0.104,-0.0976,-0.0848,-0.0716,-0.0356,-0.0028,0.032,0.0477,0.0704,0.0626,0.0785,0.0913,0.0967,0.1066,0.053,0.067,0.0668,0.0667,0.0666,0.0665,-0.0938,-0.0988,-0.1045,-0.1113,-0.116,-0.1199,-0.1216,-0.1193,-0.1156,-0.1037,-0.0897,-0.0658,-0.0171,0.0336,0.0523,0.0933,0.0886,0.1044,0.1096,0.1123,0.1208,0.0716,0.0892,0.0892,0.0891,0.0891,0.089,0,-0.0978,-0.1035,-0.1112,-0.1188,-0.125,-0.1251,-0.1268,-0.125,-0.1199,-0.1048,-0.0888,-0.0353,0.0137,0.0583,0.1158,0.1383,0.1429,0.1497,0.1565,0.1607,0.1188,0.1188,0.1433,0.1433,0.1433,0.1433,0.1433,0.1432,-0.0999,-0.1083,-0.1128,-0.124,-0.1291,-0.1332,-0.1336,-0.1285,-0.1173,-0.0901,-0.0606,-0.0371,0.0289,0.1233,0.1768,0.182,0.2003,0.2006,0.2092,0.1802,0.1763,0.1726,0.1743,0.21,0.2101,0.2502,0.2506,0.2509]}],[{"header":{"parameterUnit":"m.s-1","parameterCategory":2,"la1":30.2991,"la2":30.254,"lo1":-89.0895,"lo2":-89.0444,"dy":0.0017,"dx":0.0017,"nx":28,"ny":28,"refTime":"2025-02-11T03:00:00:Z","depth":"2","parameterNumber":2,"parameterNumberName":"U-component_of_CURRENTS"},"data":[0,0,0,0,0,0,0,0,0,0,0,0,0,0,0,0,0,0,0,0,0,0,0,0,0,0,0,0,0,0,0,0,0,0,0,0,0,0,0,0,0,0,0,0,0,0,0,0,0,0,0,0,0,0,0,0,0,0,-0.227,-0.2271,0,-0.2305,-0.2305,-0.2306,-0.2295,-0.2295,-0.2294,-0.2294,-0.232,-0.2321,-0.2322,0,0,0,0,0,0,0,0,0,0,0,0,0,-0.2202,-0.2203,-0.227,-0.2271,-0.2271,-0.2305,-0.2305,-0.2306,-0.2296,-0.2295,-0.2294,-0.2293,-0.2319,-0.2321,-0.2322,0,0,0,0,0,0,0,0,0,0,0,0,0,-0.2232,-0.2203,-0.227,-0.2272,-0.2272,-0.2305,-0.2305,-0.2306,-0.2296,-0.2295,-0.2294,-0.2293,-0.2319,-0.2321,-0.2322,-0.2351,0,0,-0.2328,-0.2329,0,0,0,0,0,0,0,0,-0.223,-0.2234,-0.2271,-0.2272,-0.2272,-0.2296,-0.2291,-0.2321,-0.2296,-0.2285,-0.2294,-0.2293,-0.2313,-0.2315,-0.2321,-0.2352,-0.2353,-0.2328,-0.2329,-0.233,-0.2331,0,0,0,0,0,0,0,-0.2228,-0.2233,-0.2282,-0.2272,-0.2272,-0.2273,-0.2276,-0.2296,-0.2302,-0.2286,-0.2286,-0.2292,-0.2313,-0.232,-0.2322,-0.2354,-0.2328,-0.233,-0.2331,-0.2332,-0.2404,-0.2405,0,0,0,0,0,0,-0.2228,-0.2231,-0.2281,-0.2284,-0.2251,-0.2275,-0.2278,-0.2288,-0.2302,-0.2304,-0.2293,-0.2292,-0.2317,-0.232,-0.2323,-0.2358,-0.233,-0.2332,-0.2333,-0.2403,-0.2404,-0.2405,0,0,0,0,0,0,-0.2226,-0.2232,-0.228,-0.2259,-0.2265,-0.2277,-0.2288,-0.2289,-0.2297,-0.2308,-0.2309,-0.2299,-0.2316,-0.232,-0.2341,-0.2358,-0.2333,-0.2334,-0.2402,-0.2404,-0.2405,-0.2427,0,0,0,0,0,0,-0.2224,-0.2232,-0.2237,-0.2259,-0.2266,-0.2304,-0.2289,-0.2291,-0.2303,-0.2301,-0.2314,-0.2315,-0.2316,-0.2339,-0.2343,-0.236,-0.2336,-0.2401,-0.2403,-0.2404,-0.2426,-0.2429,-0.2432,0,0,0,0,0,-0.2222,-0.2235,-0.2237,-0.2243,-0.2274,-0.2305,-0.2309,-0.2313,-0.2304,-0.2314,-0.2318,-0.2315,-0.2351,-0.2341,-0.2346,-0.2364,-0.2401,-0.2403,-0.2404,-0.2424,-0.2428,-0.2432,0,0,0,0,0,0,-0.2208,-0.2236,-0.2238,-0.2259,-0.2282,-0.2304,-0.2312,-0.2317,-0.2329,-0.2325,-0.2328,-0.233,-0.2354,-0.2359,-0.2347,-0.239,-0.2375,-0.2378,-0.2388,-0.2393,-0.2396,-0.2393,-0.2337,0,0,0,0,0,-0.2209,-0.2222,-0.2252,-0.2267,-0.2279,-0.2296,-0.2308,-0.2316,-0.2331,-0.2334,-0.2344,-0.2353,-0.2368,-0.2378,-0.2391,-0.242,-0.2403,-0.2434,-0.2438,-0.244,-0.2442,-0.2432,-0.2435,-0.2411,-0.2411,-0.2411,0,0,-0.2205,-0.2223,-0.223,-0.2264,-0.2279,-0.2308,-0.2301,-0.2324,-0.2346,-0.2337,-0.2363,-0.2367,-0.2377,-0.2404,-0.2415,-0.2409,-0.2437,-0.2443,-0.2445,-0.2445,-0.2434,-0.2437,-0.2438,-0.2413,-0.2412,-0.2412,0,0,-0.2211,-0.2224,-0.2241,-0.2266,-0.2297,-0.2314,-0.2323,-0.2352,-0.2361,-0.2391,-0.2385,-0.2397,-0.2427,-0.2433,-0.2441,-0.2474,-0.2453,-0.2481,-0.25,-0.249,-0.2492,-0.2493,-0.2463,-0.2461,-0.2485,-0.2485,-0.2485,0,-0.2206,-0.2232,-0.225,-0.228,-0.2299,-0.2318,-0.2346,-0.2367,-0.2398,-0.2408,-0.2402,-0.2434,-0.244,-0.2467,-0.2476,-0.2481,-0.2464,-0.2482,-0.2494,-0.2494,-0.2495,-0.2464,-0.2462,-0.2486,-0.2486,-0.2486,-0.2486,0,-0.2227,-0.2252,-0.2266,-0.2307,-0.2333,-0.236,-0.2396,-0.242,-0.243,-0.2446,-0.2472,-0.2478,-0.2493,-0.2501,-0.2499,-0.2515,-0.2496,-0.2495,-0.248,-0.2499,-0.2465,-0.2462,-0.2488,-0.2487,-0.2487,-0.2487,0,0,-0.2201,-0.2267,-0.2271,-0.2293,-0.2349,-0.2371,-0.2416,-0.2455,-0.2475,-0.25,-0.252,-0.2542,-0.2535,-0.2543,-0.2542,-0.2538,-0.2523,-0.2521,-0.252,-0.2485,-0.2485,-0.2427,-0.2417,-0.2523,-0.2523,-0.2523,-0.2454,0,-0.2208,-0.2258,-0.2294,-0.234,-0.2368,-0.2408,-0.2447,-0.2486,-0.251,-0.2536,-0.2545,-0.2562,-0.2556,-0.2558,-0.2555,-0.2538,-0.2519,-0.254,-0.2478,-0.2476,-0.2416,-0.2414,-0.2253,-0.2174,-0.2452,-0.2451,-0.2451,0,-0.2212,-0.2246,-0.229,-0.2354,-0.237,-0.2402,-0.2455,-0.2494,-0.2542,-0.256,-0.258,-0.2586,-0.2595,-0.2578,-0.2552,-0.2566,-0.2524,-0.2501,-0.2498,-0.2435,-0.2412,-0.2204,-0.2159,-0.2446,-0.2446,-0.2447,-0.2447,0,-0.2167,-0.224,-0.2269,-0.2293,-0.2371,-0.2395,-0.2434,-0.2492,-0.2521,-0.2568,-0.2584,-0.2601,-0.2599,-0.2573,-0.2535,-0.2541,-0.2489,-0.2489,-0.2391,-0.2386,-0.2231,-0.2212,-0.2449,-0.2449,-0.2449,-0.2449,-0.2449,0,-0.2152,-0.2174,-0.225,-0.2265,-0.23,-0.2367,-0.2404,-0.2451,-0.2509,-0.2532,-0.2583,-0.2593,-0.2597,-0.2575,-0.2536,-0.2453,-0.2485,-0.2386,-0.2366,-0.2234,-0.2217,-0.2445,-0.2446,-0.2446,-0.2447,-0.2447,-0.2448,0,-0.209,-0.2143,-0.2178,-0.2256,-0.2278,-0.2299,-0.2379,-0.2401,-0.2474,-0.2505,-0.2518,-0.2577,-0.2552,-0.2537,-0.2487,-0.2439,-0.2377,-0.2332,-0.217,-0.2132,-0.2276,-0.2279,-0.2216,-0.2213,-0.2211,-0.2209,-0.2208,0,-0.2059,-0.2071,-0.2146,-0.2158,-0.2188,-0.2236,-0.2261,-0.2359,-0.2386,-0.2482,-0.2482,-0.25,-0.2478,-0.2403,-0.2326,-0.2234,-0.23,-0.2032,-0.2018,-0.2266,-0.2253,-0.2259,-0.2265,-0.1811,-0.1807,-0.1803,-0.18,0,-0.1988,-0.2015,-0.204,-0.2069,-0.2096,-0.2132,-0.2182,-0.2204,-0.2308,-0.234,-0.2373,-0.2371,-0.2327,-0.2176,-0.2082,-0.2008,-0.2043,-0.1951,-0.2239,-0.191,-0.1884,-0.1872,-0.189,-0.1766,-0.1769,-0.1772,-0.1774,-0.1775,-0.1917,-0.1914,-0.1944,-0.1957,-0.1988,-0.2001,-0.1984,-0.2048,-0.2073,-0.2089,-0.2188,-0.2129,-0.2108,-0.1889,-0.1777,-0.1691,-0.1827,-0.1738,-0.175,-0.1766,-0.1746,-0.1719,-0.1565,-0.1567,-0.1569,-0.157,-0.1572,0,-0.1814,-0.1818,-0.1827,-0.1838,-0.1814,-0.1876,-0.1898,-0.1855,-0.1828,-0.188,-0.188,-0.17,-0.1605,-0.1586,-0.1406,-0.1362,-0.1344,-0.1297,-0.1281,-0.1316,-0.1347,-0.1306,-0.1007,-0.1006,-0.1004,-0.1002,0,0,-0.1759,-0.1723,-0.1726,-0.165,-0.1652,-0.1578,-0.1556,-0.1516,-0.1515,-0.1452,-0.1429,-0.1543,-0.1567,-0.1302,-0.1224,-0.1094,-0.1192,-0.1034,-0.149,-0.1508,-0.1537,-0.1606,-0.1583,0,0,0,0,0]},{"header":{"parameterUnit":"m.s-1","parameterCategory":2,"la1":30.2991,"la2":30.254,"lo1":-89.0895,"lo2":-89.0444,"dy":0.0017,"dx":0.0017,"nx":28,"ny":28,"refTime":"2025-02-11T03:00:00:Z","depth":"2","parameterNumber":3,"parameterNumberName":"V-component_of_CURRENTS"},"data":[0,0,0,0,0,0,0,0,0,0,0,0,0,0,0,0,0,0,0,0,0,0,0,0,0,0,0,0,0,0,0,0,0,0,0,0,0,0,0,0,0,0,0,0,0,0,0,0,0,0,0,0,0,0,0,0,0,0,-0.0301,-0.03,0,-0.0231,-0.023,-0.0229,-0.0177,-0.0176,-0.0176,-0.0175,-0.0072,-0.007,-0.0067,0,0,0,0,0,0,0,0,0,0,0,0,0,-0.0343,-0.0343,-0.0301,-0.03,-0.0299,-0.0231,-0.023,-0.0229,-0.0177,-0.0176,-0.0176,-0.0175,-0.0073,-0.007,-0.0067,0,0,0,0,0,0,0,0,0,0,0,0,0,-0.0303,-0.0343,-0.0301,-0.0266,-0.0262,-0.0231,-0.023,-0.0228,-0.0177,-0.0176,-0.0176,-0.0175,-0.0074,-0.007,-0.0067,-0.0055,0,0,-0.0056,-0.0054,0,0,0,0,0,0,0,0,-0.0305,-0.0301,-0.0272,-0.0268,-0.0264,-0.0213,-0.0207,-0.0169,-0.0177,-0.0208,-0.0175,-0.0175,-0.0117,-0.011,-0.0097,-0.005,-0.0046,-0.0055,-0.0053,-0.0052,-0.0051,0,0,0,0,0,0,0,-0.0308,-0.0304,-0.0272,-0.0271,-0.0266,-0.0238,-0.0232,-0.0199,-0.0165,-0.0205,-0.0201,-0.0196,-0.0115,-0.0101,-0.0094,-0.0045,-0.0056,-0.0052,-0.005,-0.0049,0.0011,0.001,0,0,0,0,0,0,-0.0322,-0.0307,-0.0274,-0.027,-0.0285,-0.0238,-0.0231,-0.0229,-0.0166,-0.0156,-0.0196,-0.0194,-0.0107,-0.0098,-0.009,-0.0073,-0.0052,-0.0048,-0.0046,0.0011,0.001,0.001,0,0,0,0,0,0,-0.0324,-0.032,-0.0277,-0.0287,-0.028,-0.0238,-0.0236,-0.0228,-0.0213,-0.016,-0.0149,-0.019,-0.0106,-0.0095,-0.0067,-0.0069,-0.0047,-0.0043,0.0012,0.0011,0.001,-0.0038,0,0,0,0,0,0,-0.0325,-0.0321,-0.0325,-0.0289,-0.028,-0.0266,-0.0236,-0.0227,-0.0211,-0.0207,-0.0151,-0.0141,-0.0105,-0.0072,-0.0063,-0.0063,-0.0041,0.0013,0.0011,0.001,-0.0036,-0.0041,-0.0045,0,0,0,0,0,-0.0327,-0.0337,-0.0326,-0.0322,-0.0287,-0.0266,-0.026,-0.0227,-0.0211,-0.021,-0.0173,-0.0142,-0.0073,-0.007,-0.0059,-0.0058,0.0013,0.0012,0.0011,-0.0034,-0.004,-0.0045,0,0,0,0,0,0,-0.0357,-0.0332,-0.0319,-0.0321,-0.0298,-0.0258,-0.0254,-0.0232,-0.0202,-0.0197,-0.0146,-0.0134,-0.0111,-0.0082,-0.008,-0.0046,-0.0026,-0.0025,-0.0064,-0.0069,-0.0073,-0.0083,-0.0038,0,0,0,0,0,-0.0367,-0.0368,-0.0338,-0.0339,-0.0331,-0.0294,-0.0282,-0.0261,-0.0229,-0.0215,-0.0177,-0.0139,-0.0108,-0.0087,-0.0058,-0.0036,0.0003,-0.0031,-0.0035,-0.0039,-0.0041,0.0008,0.0009,0.0005,0.0005,0.0005,0,0,-0.0378,-0.0365,-0.0365,-0.0346,-0.0325,-0.0322,-0.0285,-0.0273,-0.0266,-0.0209,-0.0189,-0.0154,-0.0108,-0.0086,-0.0073,-0.0059,-0.0017,-0.0041,-0.0044,-0.0044,0.0007,0.0008,0.0008,0.0004,0.0005,0.0005,0,0,-0.0406,-0.0391,-0.0403,-0.039,-0.0369,-0.0345,-0.0345,-0.0309,-0.0289,-0.0267,-0.0227,-0.0193,-0.0148,-0.0111,-0.0087,-0.0099,-0.0046,-0.0094,-0.0116,-0.0069,-0.0068,-0.0067,-0.0012,-0.0005,-0.0092,-0.0092,-0.0092,0,-0.0422,-0.0433,-0.0403,-0.0413,-0.0407,-0.036,-0.0372,-0.0344,-0.0303,-0.0286,-0.0271,-0.0197,-0.0158,-0.0119,-0.0125,-0.0106,-0.0072,-0.0098,-0.0074,-0.0072,-0.0069,-0.0014,-0.0006,-0.0095,-0.0095,-0.0094,-0.0094,0,-0.0459,-0.0468,-0.0474,-0.047,-0.0459,-0.046,-0.0423,-0.0406,-0.0375,-0.0342,-0.03,-0.0243,-0.0197,-0.0181,-0.0155,-0.0122,-0.01,-0.0088,-0.0059,-0.0072,-0.0012,-0.0003,-0.0098,-0.0098,-0.0097,-0.0096,0,0,-0.0494,-0.0501,-0.0503,-0.0515,-0.0491,-0.0488,-0.0473,-0.0444,-0.0431,-0.0381,-0.0355,-0.0297,-0.0257,-0.0229,-0.0184,-0.0141,-0.0093,-0.0114,-0.0111,-0.0058,0.0018,0.0053,0.0067,-0.0078,-0.0077,-0.0076,0.0055,0,-0.0533,-0.0573,-0.0557,-0.0585,-0.0601,-0.0557,-0.0548,-0.0512,-0.0468,-0.043,-0.0355,-0.0316,-0.0276,-0.0253,-0.0204,-0.0124,-0.0072,-0.0129,0.002,0.0025,0.006,0.0077,0.0053,0.0168,0.0064,0.0066,0.0067,0,-0.0575,-0.0598,-0.0639,-0.0649,-0.065,-0.0653,-0.0626,-0.061,-0.0539,-0.0502,-0.0438,-0.0376,-0.0299,-0.0269,-0.0126,-0.0165,-0.0081,-0.0015,-0.0008,0.0048,0.0077,0.0163,0.0189,0.0083,0.0082,0.0081,0.008,0,-0.0624,-0.0652,-0.069,-0.0694,-0.0695,-0.0697,-0.0688,-0.0634,-0.062,-0.0543,-0.0516,-0.0413,-0.0358,-0.0245,-0.0102,-0.0115,0.006,0.0064,0.0181,0.0186,0.0207,0.021,0.0167,0.0167,0.0167,0.0166,0.0166,0,-0.0674,-0.0703,-0.0719,-0.0742,-0.0779,-0.0752,-0.0765,-0.0734,-0.0683,-0.0665,-0.0559,-0.0511,-0.0352,-0.0229,-0.0105,0.0074,0.0066,0.0187,0.0223,0.0189,0.019,0.0144,0.0139,0.0171,0.017,0.0169,0.0168,0,-0.0722,-0.0733,-0.0782,-0.08,-0.0807,-0.0833,-0.0832,-0.0833,-0.0773,-0.0743,-0.0721,-0.0578,-0.0413,-0.0237,-0.0038,0.0072,0.0236,0.0302,0.0257,0.0285,0.0331,0.0322,0.0445,0.0447,0.0449,0.0451,0.0452,0,-0.0751,-0.0783,-0.0834,-0.0868,-0.0881,-0.091,-0.0926,-0.0887,-0.0879,-0.078,-0.0765,-0.0599,-0.0468,-0.0148,0.0073,0.0317,0.0306,0.043,0.04,0.0338,0.036,0.0348,0.0337,0.0415,0.0416,0.0417,0.0418,0,-0.0804,-0.0822,-0.0863,-0.0939,-0.0976,-0.1013,-0.1026,-0.1035,-0.0976,-0.0924,-0.0819,-0.0703,-0.0387,-0.0118,0.0198,0.0334,0.0387,0.0454,0.0416,0.034,0.0318,0.0337,0.0326,0.0425,0.0424,0.0424,0.0423,0.0423,-0.0835,-0.0881,-0.0937,-0.1005,-0.1055,-0.1099,-0.112,-0.1109,-0.1085,-0.0988,-0.0871,-0.0669,-0.0402,0.0048,0.0278,0.0491,0.0479,0.0528,0.0522,0.0516,0.0481,0.0462,0.0591,0.0591,0.0591,0.0591,0.0591,0,-0.0872,-0.0924,-0.0998,-0.1076,-0.1138,-0.1145,-0.1171,-0.1157,-0.1122,-0.1002,-0.0869,-0.0564,-0.0246,0.0035,0.0378,0.0578,0.0556,0.0608,0.0535,0.0527,0.0521,0.0482,0.0595,0.0595,0.0596,0.0596,0,0,-0.0892,-0.0969,-0.101,-0.1122,-0.1176,-0.1222,-0.1232,-0.1188,-0.1098,-0.0968,-0.0813,-0.0596,-0.0246,-0.0007,0.0253,0.0434,0.0426,0.0452,0.043,0.0306,0.0297,0.0459,0.039,0,0,0,0,0]}],[{"header":{"parameterUnit":"m.s-1","parameterCategory":2,"la1":30.2991,"la2":30.254,"lo1":-89.0895,"lo2":-89.0444,"dy":0.0017,"dx":0.0017,"nx":28,"ny":28,"refTime":"2025-02-11T03:00:00:Z","depth":"4","parameterNumber":2,"parameterNumberName":"U-component_of_CURRENTS"},"data":[0,0,0,0,0,0,0,0,0,0,0,0,0,0,0,0,0,0,0,0,0,0,0,0,0,0,0,0,0,0,0,0,0,0,0,0,0,0,0,0,0,0,0,0,0,0,0,0,0,0,0,0,0,0,0,0,0,0,-0.1574,-0.1575,0,-0.164,-0.1641,-0.1642,-0.1683,-0.1684,-0.1684,-0.1684,-0.1774,-0.1776,-0.1778,0,0,0,0,0,0,0,0,0,0,0,0,0,-0.1489,-0.1491,-0.1574,-0.1575,-0.1576,-0.164,-0.1641,-0.1642,-0.1683,-0.1684,-0.1684,-0.1685,-0.1773,-0.1776,-0.1778,0,0,0,0,0,0,0,0,0,0,0,0,0,-0.1537,-0.1491,-0.1574,-0.1605,-0.1609,-0.164,-0.1641,-0.1642,-0.1683,-0.1684,-0.1684,-0.1685,-0.1772,-0.1775,-0.1778,-0.1787,0,0,-0.1788,-0.1789,0,0,0,0,0,0,0,0,-0.1534,-0.154,-0.16,-0.1603,-0.1607,-0.1655,-0.1644,-0.1692,-0.1683,-0.1654,-0.1684,-0.1685,-0.1736,-0.1743,-0.1752,-0.1792,-0.1795,-0.1788,-0.179,-0.1791,-0.1792,0,0,0,0,0,0,0,-0.1531,-0.1537,-0.1599,-0.1601,-0.1605,-0.1618,-0.1625,-0.1653,-0.1691,-0.1656,-0.166,-0.1669,-0.1739,-0.1749,-0.1755,-0.1797,-0.1788,-0.1791,-0.1793,-0.1794,-0.1911,-0.1913,0,0,0,0,0,0,-0.1524,-0.1534,-0.1597,-0.1601,-0.1572,-0.1619,-0.1627,-0.1638,-0.1691,-0.1699,-0.1668,-0.167,-0.1743,-0.1751,-0.1758,-0.1837,-0.1791,-0.1794,-0.1796,-0.191,-0.1912,-0.1913,0,0,0,0,0,0,-0.1522,-0.1529,-0.1595,-0.157,-0.1579,-0.162,-0.1632,-0.1639,-0.1677,-0.1699,-0.1708,-0.1702,-0.1744,-0.1754,-0.1807,-0.1838,-0.1796,-0.1798,-0.1909,-0.1911,-0.1912,-0.1952,0,0,0,0,0,0,-0.1519,-0.1528,-0.1547,-0.1569,-0.158,-0.1632,-0.1632,-0.164,-0.1681,-0.1685,-0.1731,-0.1738,-0.1745,-0.1803,-0.181,-0.1841,-0.1801,-0.1907,-0.191,-0.1912,-0.1949,-0.1955,-0.196,0,0,0,0,0,-0.1516,-0.1537,-0.1547,-0.1556,-0.1601,-0.1633,-0.1641,-0.167,-0.1682,-0.1705,-0.1736,-0.1738,-0.1823,-0.1807,-0.1815,-0.1848,-0.1906,-0.1909,-0.1912,-0.1947,-0.1954,-0.196,0,0,0,0,0,0,-0.1512,-0.1544,-0.1556,-0.1586,-0.1617,-0.1641,-0.1668,-0.1686,-0.1728,-0.1741,-0.1758,-0.1768,-0.1824,-0.1831,-0.1813,-0.1888,-0.1864,-0.1868,-0.1888,-0.1895,-0.19,-0.1891,-0.1803,0,0,0,0,0,-0.1519,-0.1543,-0.1572,-0.16,-0.1617,-0.1648,-0.167,-0.1691,-0.1724,-0.1744,-0.1776,-0.1809,-0.1837,-0.1863,-0.1889,-0.1935,-0.1919,-0.1961,-0.1966,-0.1971,-0.197,-0.1969,-0.1974,-0.1922,-0.1922,-0.1922,0,0,-0.1525,-0.1546,-0.1561,-0.1601,-0.1627,-0.166,-0.1663,-0.1706,-0.1741,-0.1747,-0.1813,-0.1833,-0.1854,-0.1902,-0.1928,-0.1917,-0.1977,-0.1974,-0.1978,-0.1974,-0.1973,-0.1977,-0.1982,-0.1924,-0.1924,-0.1924,0,0,-0.1541,-0.157,-0.1594,-0.1623,-0.1668,-0.1688,-0.1706,-0.175,-0.178,-0.1837,-0.1847,-0.1884,-0.194,-0.1955,-0.1968,-0.2021,-0.2004,-0.2036,-0.2063,-0.2063,-0.2067,-0.207,-0.205,-0.2051,-0.2042,-0.2042,-0.2042,0,-0.1551,-0.1582,-0.1608,-0.1639,-0.1668,-0.1703,-0.1738,-0.1773,-0.1832,-0.1857,-0.1867,-0.194,-0.1961,-0.2004,-0.2023,-0.2034,-0.2023,-0.2036,-0.2069,-0.2072,-0.2074,-0.2053,-0.2054,-0.2044,-0.2044,-0.2044,-0.2044,0,-0.1575,-0.1615,-0.1634,-0.1683,-0.1718,-0.1756,-0.1802,-0.1848,-0.1887,-0.1915,-0.1977,-0.2003,-0.2041,-0.2057,-0.206,-0.2095,-0.2077,-0.2072,-0.2048,-0.2082,-0.2058,-0.2057,-0.2048,-0.2047,-0.2046,-0.2045,0,0,-0.1557,-0.1635,-0.1645,-0.1676,-0.1746,-0.1773,-0.1838,-0.1894,-0.1933,-0.1991,-0.2034,-0.2085,-0.2096,-0.2111,-0.212,-0.2126,-0.2135,-0.2113,-0.2111,-0.2085,-0.2122,-0.1996,-0.1983,-0.2137,-0.2138,-0.2138,-0.2095,0,-0.157,-0.1629,-0.167,-0.1736,-0.1769,-0.1826,-0.1878,-0.1936,-0.1986,-0.2038,-0.2069,-0.2115,-0.2118,-0.2139,-0.2148,-0.2144,-0.2138,-0.2146,-0.21,-0.2098,-0.1976,-0.198,-0.2139,-0.2095,-0.2095,-0.2095,-0.2095,0,-0.1573,-0.1614,-0.1678,-0.1758,-0.1779,-0.1828,-0.191,-0.1963,-0.2038,-0.2075,-0.2123,-0.2146,-0.2181,-0.217,-0.2172,-0.2179,-0.2152,-0.2138,-0.2136,-0.2002,-0.1971,-0.2057,-0.2094,-0.2094,-0.2094,-0.2094,-0.2094,0,-0.1526,-0.1616,-0.1666,-0.1696,-0.1793,-0.1839,-0.1894,-0.1976,-0.2018,-0.2099,-0.2129,-0.2174,-0.2196,-0.2187,-0.217,-0.2174,-0.2149,-0.2148,-0.2003,-0.1994,-0.2103,-0.2101,-0.2128,-0.2128,-0.2128,-0.2128,-0.2128,0,-0.1503,-0.1547,-0.1655,-0.168,-0.1742,-0.1822,-0.1889,-0.1952,-0.2032,-0.2064,-0.2143,-0.2159,-0.2202,-0.2197,-0.2173,-0.208,-0.2149,-0.1996,-0.1972,-0.2121,-0.2121,-0.2102,-0.21,-0.2126,-0.2127,-0.2127,-0.2127,0,-0.1435,-0.151,-0.1571,-0.1683,-0.1721,-0.1765,-0.1877,-0.1911,-0.2007,-0.2051,-0.2076,-0.2151,-0.2141,-0.2154,-0.2132,-0.2062,-0.2002,-0.1948,-0.2097,-0.2084,-0.1846,-0.1846,-0.1776,-0.1772,-0.1768,-0.1764,-0.1761,0,-0.14,-0.1427,-0.1552,-0.1585,-0.164,-0.1721,-0.1763,-0.188,-0.1909,-0.202,-0.2015,-0.2058,-0.2084,-0.1948,-0.1985,-0.1916,-0.1892,-0.1845,-0.185,-0.1825,-0.1809,-0.1816,-0.1822,-0.1755,-0.1754,-0.1752,-0.1751,0,-0.1326,-0.1385,-0.1432,-0.15,-0.1559,-0.1612,-0.1685,-0.1693,-0.1807,-0.1914,-0.1897,-0.1886,-0.1868,-0.185,-0.1806,-0.1763,-0.1873,-0.1802,-0.181,-0.1814,-0.1797,-0.1788,-0.1798,-0.1737,-0.1739,-0.174,-0.1741,0,-0.1267,-0.128,-0.1348,-0.139,-0.1458,-0.147,-0.1533,-0.1559,-0.1606,-0.1731,-0.1718,-0.177,-0.1845,-0.1768,-0.1732,-0.1677,-0.1651,-0.1591,-0.161,-0.1626,-0.1597,-0.1555,-0.1386,0,0,0,0,0,-0.1196,-0.1193,-0.1227,-0.1267,-0.1326,-0.1362,-0.1456,-0.1519,-0.1632,-0.157,-0.164,-0.1618,-0.1579,-0.1613,-0.152,-0.1656,-0.1653,-0.1542,-0.1595,-0.1658,-0.1674,-0.1654,0,0,0,0,0,0,-0.1148,-0.1176,-0.1183,-0.1145,-0.1144,-0.1194,-0.1246,-0.133,-0.1309,-0.1431,-0.1416,-0.151,-0.1493,-0.1596,-0.1482,-0.1489,-0.1486,-0.1584,-0.1579,-0.1648,-0.1663,-0.1677,-0.1662,0,0,0,0,0]},{"header":{"parameterUnit":"m.s-1","parameterCategory":2,"la1":30.2991,"la2":30.254,"lo1":-89.0895,"lo2":-89.0444,"dy":0.0017,"dx":0.0017,"nx":28,"ny":28,"refTime":"2025-02-11T03:00:00:Z","depth":"4","parameterNumber":3,"parameterNumberName":"V-component_of_CURRENTS"},"data":[0,0,0,0,0,0,0,0,0,0,0,0,0,0,0,0,0,0,0,0,0,0,0,0,0,0,0,0,0,0,0,0,0,0,0,0,0,0,0,0,0,0,0,0,0,0,0,0,0,0,0,0,0,0,0,0,0,0,-0.0236,-0.0235,0,-0.0191,-0.019,-0.019,-0.0156,-0.0156,-0.0156,-0.0156,-0.0079,-0.0077,-0.0075,0,0,0,0,0,0,0,0,0,0,0,0,0,-0.0256,-0.0256,-0.0236,-0.0235,-0.0235,-0.0191,-0.019,-0.019,-0.0156,-0.0156,-0.0156,-0.0156,-0.008,-0.0077,-0.0075,0,0,0,0,0,0,0,0,0,0,0,0,0,-0.0232,-0.0256,-0.0236,-0.0214,-0.0211,-0.0191,-0.019,-0.0189,-0.0157,-0.0156,-0.0156,-0.0156,-0.008,-0.0078,-0.0075,-0.0063,0,0,-0.0066,-0.0065,0,0,0,0,0,0,0,0,-0.0233,-0.0231,-0.0218,-0.0215,-0.0213,-0.018,-0.0169,-0.0146,-0.0157,-0.0176,-0.0156,-0.0156,-0.0111,-0.0105,-0.0096,-0.006,-0.0056,-0.0066,-0.0064,-0.0063,-0.0062,0,0,0,0,0,0,0,-0.0235,-0.0233,-0.0217,-0.0217,-0.0214,-0.0194,-0.019,-0.0165,-0.0144,-0.0174,-0.0172,-0.0169,-0.0109,-0.0099,-0.0094,-0.0055,-0.0066,-0.0064,-0.0062,-0.0061,-0.0016,-0.0016,0,0,0,0,0,0,-0.0245,-0.0235,-0.0218,-0.0216,-0.0224,-0.0194,-0.019,-0.019,-0.0145,-0.0139,-0.0169,-0.0168,-0.0104,-0.0098,-0.0092,-0.0081,-0.0063,-0.0061,-0.0059,-0.0015,-0.0016,-0.0016,0,0,0,0,0,0,-0.0246,-0.0244,-0.022,-0.0225,-0.022,-0.0194,-0.0194,-0.0189,-0.0181,-0.0142,-0.0134,-0.0167,-0.0104,-0.0095,-0.0075,-0.0077,-0.0059,-0.0057,-0.0015,-0.0015,-0.0016,-0.0055,0,0,0,0,0,0,-0.0247,-0.0245,-0.0251,-0.0226,-0.0221,-0.0215,-0.0194,-0.0189,-0.018,-0.0178,-0.0138,-0.013,-0.0103,-0.0079,-0.0072,-0.0073,-0.0055,-0.0014,-0.0015,-0.0016,-0.0053,-0.0057,-0.006,0,0,0,0,0,-0.0248,-0.0257,-0.0251,-0.0249,-0.0228,-0.0215,-0.0211,-0.019,-0.0181,-0.0181,-0.0155,-0.0131,-0.008,-0.0077,-0.0069,-0.0069,-0.0013,-0.0015,-0.0016,-0.0052,-0.0056,-0.006,0,0,0,0,0,0,-0.0267,-0.0254,-0.0247,-0.0251,-0.0238,-0.021,-0.021,-0.0195,-0.0175,-0.0173,-0.0134,-0.0125,-0.0109,-0.0086,-0.0085,-0.006,-0.0044,-0.0043,-0.0074,-0.0078,-0.0082,-0.009,-0.0052,0,0,0,0,0,-0.0276,-0.028,-0.0261,-0.0265,-0.0261,-0.0237,-0.023,-0.0217,-0.0195,-0.0186,-0.0158,-0.013,-0.0107,-0.0091,-0.0069,-0.0052,-0.0019,-0.0049,-0.0052,-0.0056,-0.0057,-0.0015,-0.0014,-0.002,-0.002,-0.002,0,0,-0.0285,-0.0278,-0.028,-0.027,-0.0258,-0.0258,-0.0232,-0.0226,-0.0223,-0.018,-0.0169,-0.0142,-0.0107,-0.0091,-0.0081,-0.0071,-0.0036,-0.0057,-0.006,-0.006,-0.0016,-0.0015,-0.0014,-0.002,-0.002,-0.002,0,0,-0.0306,-0.03,-0.0311,-0.0304,-0.0292,-0.0277,-0.0278,-0.0255,-0.0243,-0.0229,-0.0199,-0.0173,-0.014,-0.0111,-0.0093,-0.0103,-0.0059,-0.01,-0.0118,-0.0077,-0.0076,-0.0075,-0.0027,-0.0021,-0.0098,-0.0098,-0.0098,0,-0.0318,-0.033,-0.0312,-0.032,-0.032,-0.0289,-0.03,-0.0283,-0.0256,-0.0245,-0.0234,-0.0179,-0.0148,-0.0118,-0.0124,-0.0109,-0.0079,-0.0104,-0.0081,-0.0079,-0.0077,-0.0028,-0.0021,-0.01,-0.01,-0.01,-0.01,0,-0.0346,-0.0357,-0.0363,-0.0365,-0.0361,-0.0365,-0.0342,-0.0332,-0.0314,-0.0291,-0.0262,-0.0217,-0.0182,-0.0169,-0.0148,-0.0121,-0.0102,-0.0092,-0.0069,-0.0079,-0.0026,-0.0018,-0.0103,-0.0103,-0.0102,-0.0102,0,0,-0.0368,-0.0382,-0.0385,-0.0399,-0.0387,-0.0388,-0.0382,-0.0366,-0.0361,-0.0324,-0.0308,-0.0262,-0.0231,-0.0209,-0.0173,-0.0137,-0.0093,-0.0114,-0.0111,-0.0064,0.0003,-0.0001,0.0008,-0.0081,-0.008,-0.0079,0.0036,0,-0.0396,-0.0432,-0.0425,-0.0454,-0.0469,-0.0444,-0.0442,-0.0421,-0.0393,-0.0368,-0.0308,-0.0282,-0.0248,-0.0231,-0.0188,-0.0121,-0.0075,-0.0125,0.0004,0.0008,0.0007,0.0015,-0.0076,0.0043,0.0045,0.0046,0.0047,0,-0.0424,-0.0446,-0.0486,-0.0505,-0.0509,-0.0519,-0.0511,-0.0505,-0.0456,-0.0431,-0.0382,-0.0334,-0.027,-0.0244,-0.0121,-0.0156,-0.0082,-0.0024,-0.0018,-0.0004,0.0018,0.0054,0.0062,0.0061,0.006,0.0059,0.0058,0,-0.0454,-0.0487,-0.0524,-0.0531,-0.0545,-0.0556,-0.0558,-0.0526,-0.0522,-0.0468,-0.0451,-0.0365,-0.0323,-0.0223,-0.0103,-0.0112,0.0036,0.0043,0.0117,0.0118,0.0106,0.0103,0.0135,0.0135,0.0134,0.0134,0.0134,0,-0.0484,-0.0515,-0.0547,-0.0568,-0.061,-0.06,-0.0625,-0.0608,-0.0578,-0.0571,-0.0489,-0.0454,-0.0318,-0.0216,-0.0107,0.0031,0.0041,0.0118,0.0146,0.0087,0.0081,0.0113,0.0108,0.0138,0.0137,0.0137,0.0136,0,-0.0508,-0.0529,-0.0579,-0.0613,-0.0629,-0.0659,-0.0683,-0.0692,-0.0656,-0.0641,-0.0625,-0.0515,-0.0381,-0.0232,-0.006,0.0021,0.0155,0.0206,0.0141,0.0162,0.0213,0.0206,0.0296,0.0297,0.0297,0.0298,0.0298,0,-0.0521,-0.0551,-0.0619,-0.0658,-0.068,-0.0722,-0.0748,-0.0735,-0.0735,-0.0675,-0.0662,-0.0537,-0.0448,-0.0195,-0.005,0.017,0.0196,0.0266,0.023,0.0211,0.023,0.0221,0.0213,0.0299,0.03,0.03,0.03,0,-0.0547,-0.0577,-0.0618,-0.0702,-0.075,-0.0797,-0.0826,-0.0831,-0.0802,-0.0776,-0.0676,-0.0541,-0.0385,-0.0196,-0.0021,0.0131,0.0215,0.0273,0.0272,0.0239,0.0216,0.0232,0.0223,0.0302,0.0302,0.0302,0.0301,0,-0.0562,-0.0602,-0.0665,-0.0732,-0.0801,-0.0845,-0.086,-0.0843,-0.0833,-0.0754,-0.0724,-0.0547,-0.0444,-0.0215,-0.0057,0.0094,0.0124,0.016,0.0166,0.0165,0.0084,0.0033,0.0091,0,0,0,0,0,-0.0571,-0.0618,-0.0689,-0.0764,-0.0834,-0.0867,-0.0898,-0.0896,-0.087,-0.0803,-0.0758,-0.0605,-0.0361,-0.0253,-0.01,-0.006,0.0137,0.0121,0.0178,0.0315,0.0312,0.0237,0,0,0,0,0,0,-0.058,-0.0648,-0.0687,-0.0773,-0.0826,-0.0891,-0.091,-0.0894,-0.0842,-0.0795,-0.0659,-0.0581,-0.0339,-0.0444,-0.01,-0.0055,-0.0002,0.024,0.0243,0.0316,0.0314,0.0312,0.0234,0,0,0,0,0]}]]